Grand Forks AFB, ND

8:22 PM CDT on September 22, 2017 (GMT -0500)
Grand Forks Air Force Base

Weather History for KRDR - May, 2013

Change the Weather History Date:

Thursday, May 23, 2013

  Actual Average Record
Temperature  
Mean Temperature 54 °F -  
Max Temperature 65 °F 66 °F 89 °F (2006)
Min Temperature 43 °F 42 °F 33 °F (2002)
Degree Days  
Heating Degree Days 11    
Growing Degree Days 4 (Base 50)    
Moisture  
Dew Point 34 °F    
Average Humidity 50    
Maximum Humidity 85    
Minimum Humidity 25    
Precipitation  
Precipitation 0.00 in - - ()
Sea Level Pressure  
Sea Level Pressure 30.32 in    
Wind  
Wind Speed 8 mph (East)    
Max Wind Speed 13 mph    
Max Gust Speed 17 mph    
Visibility 10 miles    
Events      
Averages and records for this station are not official NWS values.
T = Trace of Precipitation, MM = Missing Value Source: NWS Daily Summary

Daily Weather History Graph

Daily Weather History Graph

Search for Another Location

Airport or City:

Trip Planner

Search our weather history database for the weather conditions in past years. The results will help you decide how hot, cold, wet, or windy it might be!

Date:

Astronomy

May. 23, 2013 Rise Set
Actual Time 5:41 AM CDT 9:11 PM CDT
Civil Twilight 5:03 AM CDT 9:50 PM CDT
Nautical Twilight 4:12 AM CDT 10:41 PM CDT
Astronomical Twilight 3:03 AM CDT 11:51 PM CDT
Moon 7:40 PM CDT 4:35 AM CDT
Length of Visible Light 16h 47m
Length of Day
15h 30m
Waxing Gibbous, 97% of the Moon is Illuminated
May 23
Waxing Gibbous
May 24
Full
May 31
Last Quarter
Jun 8
New
Jun 16
First Quarter

Hourly Weather History & Observations

Time (CDT) Temp. Windchill Dew Point Humidity Pressure Visibility Wind Dir Wind Speed Gust Speed Precip Events Conditions
12:58 AM 47.8 °F - 40.8 °F 77% 30.22 in 10.0 mi NNE 6.9 mph - N/A   Clear
1:58 AM 45.9 °F 42.3 °F 41.7 °F 85% 30.25 in 10.0 mi NNE 6.9 mph - N/A   Clear
2:58 AM 47.8 °F - 40.8 °F 77% 30.25 in 10.0 mi NE 8.1 mph - N/A   Clear
3:58 AM 45.3 °F 41.1 °F 40.6 °F 84% 30.27 in 10.0 mi NE 8.1 mph - N/A   Clear
4:58 AM 45.1 °F 40.8 °F 39.6 °F 81% 30.29 in 10.0 mi ENE 8.1 mph - N/A   Clear
5:58 AM 43.7 °F 40.3 °F 38.3 °F 81% 30.32 in 10.0 mi ENE 5.8 mph - N/A   Clear
6:58 AM 46.2 °F 42.2 °F 38.1 °F 73% 30.33 in 10.0 mi East 8.1 mph - N/A   Clear
7:58 AM 48.9 °F - 36.7 °F 63% 30.34 in 10.0 mi ESE 12.7 mph - N/A   Clear
8:58 AM 51.6 °F - 36.3 °F 56% 30.36 in 10.0 mi East 8.1 mph - N/A   Clear
9:58 AM 54.1 °F - 36.5 °F 51% 30.38 in 10.0 mi ENE 5.8 mph - N/A   Clear
10:58 AM 55.9 °F - 36.9 °F 49% 30.37 in 10.0 mi Variable 3.5 mph - N/A   Clear
11:58 AM 59.0 °F - 33.6 °F 38% 30.38 in 10.0 mi ENE 11.5 mph - N/A   Clear
12:58 PM 60.1 °F - 33.6 °F 37% 30.37 in 10.0 mi NE 10.4 mph 16.1 mph N/A   Clear
1:58 PM 61.3 °F - 32.2 °F 33% 30.36 in 10.0 mi East 11.5 mph - N/A   Clear
2:17 PM 60.8 °F - 32.0 °F 34% 30.32 in 10.0 mi SE 11.5 mph 17.3 mph N/A   Clear
2:58 PM 62.1 °F - 30.2 °F 30% 30.35 in 10.0 mi East 6.9 mph - N/A   Clear
3:58 PM 63.7 °F - 29.7 °F 28% 30.34 in 10.0 mi East 5.8 mph - N/A   Clear
4:58 PM 65.1 °F - 28.6 °F 25% 30.32 in 10.0 mi East 8.1 mph - N/A   Clear
5:58 PM 65.5 °F - 28.8 °F 25% 30.31 in 10.0 mi SSE 4.6 mph - N/A   Clear
6:58 PM 64.9 °F - 28.6 °F 25% 30.30 in 10.0 mi SE 10.4 mph - N/A   Clear
7:58 PM 63.9 °F - 29.7 °F 28% 30.29 in 10.0 mi SE 6.9 mph - N/A   Clear
8:58 PM 58.6 °F - 33.8 °F 39% 30.29 in 10.0 mi SE 5.8 mph - N/A   Clear
9:58 PM 56.3 °F - 29.1 °F 35% 30.30 in 10.0 mi ESE 5.8 mph - N/A   Clear
10:58 PM 54.5 °F - 28.4 °F 37% 30.30 in 10.0 mi SE 6.9 mph - N/A   Clear
11:58 PM 50.2 °F - 30.7 °F 47% 30.31 in 10.0 mi SE 6.9 mph - N/A   Clear